Wind_Speed
68 64 63 56 51 46 43 40 37 32 31 30 24 25 29 33 25 27 32 33 31 27 25 19 19 19 16 13 15 14 15 16 14 15 16 18 21 21 22 23 23 24 26 27
71 69 61 56 49 48 44 42 42 37 36 34 33 29 31 28 22 24 25 30 33 32 28 23 20 20 21 18 17 17 17 18 18 19 21 21 23 23 23 24 25 29 32 31
71 69 65 58 53 50 49 45 40 41 39 36 35 35 35 29 25 22 18 22 27 30 28 26 22 20 22 20 21 20 22 23 22 22 23 23 23 24 26 29 31 32 32 34
70 70 64 60 55 51 49 39 38 38 42 41 40 38 33 29 26 20 17 17 21 27 28 29 28 26 23 25 27 25 26 28 27 27 25 24 26 28 29 31 33 35 36 37
74 72 67 64 57 53 48 46 39 39 40 43 43 44 35 35 28 21 21 17 18 20 20 20 21 22 28 30 31 31 30 30 30 31 30 30 29 30 34 36 38 38 39 39
68 67 64 63 58 54 51 44 43 48 48 45 42 43 38 36 26 26 24 18 17 17 17 19 18 17 16 17 20 31 32 32 32 36 35 35 36 37 37 39 41 42 43 43
71 69 66 63 59 54 53 45 44 42 46 53 45 45 45 34 30 26 28 27 25 24 21 20 19 15 16 16 15 16 19 23 28 32 35 37 40 42 42 43 44 45 46 46
73 74 69 66 64 57 54 55 54 54 50 51 51 48 48 32 33 28 29 29 25 20 22 19 18 19 19 19 19 19 20 19 21 23 25 29 34 39 45 48 48 49 48 49
74 68 71 69 64 63 61 55 51 51 51 50 52 52 51 33 33 34 31 30 28 25 24 25 28 28 27 24 21 21 22 22 21 23 26 28 30 32 35 41 48 51 51 50
73 67 67 69 66 66 62 57 53 54 56 59 57 54 49 39 31 32 34 34 34 32 30 31 32 33 33 29 28 30 31 32 34 36 37 37 36 35 35 36 38 47 52 52
67 71 71 72 73 70 66 67 67 62 59 53 48 42 35 35 32 33 34 35 35 36 36 36 36 35 36 35 34 35 36 38 39 40 41 40 39 37 35 34 36 40 47 52
63 57 65 64 65 68 66 66 65 64 61 62 59 55 51 46 43 39 39 38 40 39 38 38 38 37 38 39 40 40 40 41 41 41 42 42 42 43 45 48 49 47 49 52
71 70 68 66 62 62 68 66 62 61 59 58 54 52 50 49 46 46 43 41 41 40 41 42 43 43 44 44 44 44 45 46 46 46 45 45 45 47 47 47 48 50 53 55
74 74 71 66 61 57 54 59 65 65 64 59 58 52 54 54 53 49 47 45 44 45 45 45 46 46 46 46 47 48 49 50 51 50 50 51 52 51 50 49 51 52 54 57
71 72 69 66 65 62 56 59 64 64 60 60 52 52 51 49 52 54 54 54 52 49 47 45 46 46 47 46 45 47 49 50 52 54 56 57 56 55 53 52 52 55 57 58
63 71 67 65 67 67 64 58 51 55 61 60 58 57 54 55 58 57 53 51 47 46 44 44 45 44 44 45 48 49 51 51 51 52 51 51 52 53 56 56 56 57 58 58
54 60 63 66 64 63 67 62 57 52 50 50 53 41 48 49 51 49 47 45 45 46 46 46 46 48 49 51 51 53 53 51 50 48 48 48 48 48 49 51 51 53 55 57
64 59 63 67 68 66 59 58 52 53 52 48 45 43 42 38 38 42 49 49 47 48 49 51 52 53 52 50 49 47 47 48 48 49 48 49 48 49 51 53 54 53 54 54
61 59 67 65 59 59 57 53 53 53 49 45 43 45 43 43 45 47 47 42 44 47 49 53 54 52 51 50 48 48 48 48 47 47 49 48 48 51 53 56 56 56 55 50
57 56 58 61 59 59 49 51 48 47 50 44 43 43 43 43 49 41 41 44 46 48 53 53 50 48 47 45 45 46 46 45 44 45 45 46 46 48 51 53 56 58 56 54
55 56 57 56 51 46 48 46 42 46 39 41 41 43 43 48 45 41 43 47 50 50 49 49 49 48 46 46 45 41 40 41 41 41 42 43 45 48 51 53 56 58 60 57
50 52 52 54 45 41 43 54 47 43 36 40 44 43 41 41 42 46 49 52 53 53 53 52 50 50 47 41 37 36 36 34 34 36 38 39 40 44 49 51 51 53 56 57
50 45 41 40 33 35 38 39 43 42 39 37 41 42 43 44 45 46 47 49 49 48 50 49 51 44 43 41 40 38 35 35 36 37 38 37 39 42 44 45 47 48 47 48
51 43 39 37 34 36 37 37 37 38 39 41 44 46 44 44 46 48 49 48 48 46 45 46 46 45 45 45 42 38 37 38 40 39 38 36 38 41 44 45 48 50 50 50
49 44 40 39 42 45 45 45 41 41 41 41 43 45 44 44 44 45 44 44 44 46 47 47 46 46 44 43 42 39 40 40 38 39 39 38 41 43 43 44 46 47 49 49
45 40 43 43 43 45 42 39 39 40 41 44 49 48 48 48 48 48 49 50 49 49 50 49 47 46 45 44 42 41 41 42 42 42 43 44 44 44 45 45 44 44 45 46
Wind_Direction
224 225 224 224 224 223 225 227 225 219 221 221 219 222 226 237 235 241 241 239 235 240 242 245 254 254 247 242 254 244 246 252 251 252 250 252 253 250 251 253 253 254 258 260
222 225 225 225 222 224 225 226 227 225 221 225 227 222 228 233 231 237 242 247 240 237 244 246 249 251 255 247 247 262 262 259 255 254 257 258 261 260 258 259 253 253 260 265
227 228 224 224 221 224 224 224 227 230 229 225 231 232 232 241 244 253 276 260 242 227 231 237 241 245 248 256 255 252 262 262 262 258 261 265 266 268 265 259 259 262 263 268
225 225 225 226 224 222 225 225 225 233 230 229 231 234 236 238 246 254 255 247 229 221 226 234 240 240 240 245 249 250 252 262 264 265 265 265 271 271 269 270 269 267 267 267
222 224 225 225 226 224 223 222 221 224 233 226 232 239 229 240 243 246 241 231 228 231 232 234 242 248 241 242 241 245 246 254 262 265 266 267 265 264 268 271 272 272 273 275
222 223 221 224 222 223 220 210 211 221 234 230 231 239 232 238 240 239 230 232 238 238 241 248 245 244 253 257 262 252 253 255 257 262 263 264 265 265 267 268 271 275 277 278
216 219 220 222 220 219 224 214 227 218 232 239 232 237 242 235 242 242 237 237 246 249 252 249 245 251 255 260 265 267 264 266 268 267 269 269 268 267 268 271 270 271 274 277
218 215 217 219 223 225 217 214 219 223 228 236 241 240 245 235 240 244 235 235 240 251 248 238 255 265 280 277 277 274 276 271 270 277 277 275 274 272 268 269 269 270 271 273
220 223 218 219 222 222 220 220 227 231 236 239 241 242 246 237 236 237 234 236 252 250 249 249 255 268 283 284 281 278 275 269 268 274 281 283 280 281 277 274 270 269 272 273
217 226 224 220 219 220 220 218 215 219 230 236 242 244 241 242 239 239 242 244 248 251 254 259 263 267 272 273 272 274 274 272 273 275 279 281 284 277 274 275 277 271 271 271
213 219 224 221 219 223 224 225 227 231 233 234 236 243 241 246 245 245 245 248 251 256 260 261 263 268 272 273 269 267 268 271 276 278 281 284 285 280 271 272 272 274 274 272
212 211 219 225 227 227 226 231 231 232 236 241 248 254 258 259 260 251 249 245 246 249 253 258 261 263 263 262 264 265 267 269 272 277 281 283 282 281 277 276 277 272 270 272
215 217 220 223 226 227 229 232 233 235 236 239 242 246 253 255 255 255 247 244 245 247 249 252 256 258 259 261 264 267 270 273 275 275 273 276 272 275 274 275 274 274 273 273
217 218 218 224 235 233 232 231 233 234 236 241 244 247 251 253 254 253 254 254 251 251 252 251 252 254 257 259 262 266 269 272 275 276 277 279 279 279 278 275 274 275 274 275
220 218 219 222 226 229 233 237 238 236 237 238 240 244 248 251 254 255 256 257 258 260 256 254 254 255 257 260 264 267 269 270 272 274 274 275 277 278 278 277 278 279 281 282
220 222 224 223 225 230 235 236 236 236 235 235 233 234 238 244 247 250 255 258 261 263 262 259 258 260 263 265 266 268 269 270 272 273 276 280 284 288 288 288 289 283 281 281
216 216 221 225 229 232 235 232 233 236 241 239 240 235 246 248 254 253 255 259 260 261 263 264 266 266 266 269 272 273 275 278 279 280 280 281 282 285 286 286 287 287 284 283
228 228 229 232 231 234 230 231 234 239 242 242 238 237 238 246 249 252 254 256 259 261 263 263 263 267 269 271 274 278 280 280 279 278 279 279 278 279 280 279 278 278 280 281
230 228 229 229 234 236 233 230 231 238 241 247 245 243 248 250 251 248 249 258 263 263 264 264 265 270 274 275 276 277 278 278 279 279 278 277 278 280 282 283 280 279 279 279
225 231 237 238 238 239 235 234 240 245 239 236 236 240 244 248 249 254 261 258 261 264 266 270 274 275 276 276 276 275 275 277 279 281 282 282 283 284 285 283 283 284 284 282
226 236 242 242 239 235 230 230 232 239 234 240 238 241 249 249 252 256 260 265 267 268 268 270 273 274 273 273 274 273 273 275 277 279 283 286 287 285 286 287 289 287 285 282
232 229 227 226 230 237 234 229 234 238 235 234 240 243 246 250 256 258 258 260 263 264 267 268 267 266 266 266 266 267 269 272 277 282 285 286 285 285 286 289 292 293 292 289
222 231 233 234 244 239 231 230 228 230 237 243 246 249 249 251 254 258 260 262 262 263 262 260 258 256 261 260 263 264 269 276 280 282 283 287 288 286 287 290 291 294 296 292
226 224 226 220 223 227 234 236 232 237 240 242 245 248 251 257 261 264 264 262 262 259 254 252 253 256 257 259 266 273 276 277 280 285 284 287 289 290 290 290 293 295 294 292
226 235 238 234 230 229 229 233 234 232 232 237 246 252 256 256 253 254 256 259 260 254 251 253 256 259 260 262 269 275 279 283 285 285 290 293 293 293 293 292 292 291 291 290
229 223 224 227 229 233 236 238 236 240 245 248 251 254 256 256 253 253 256 257 253 253 256 258 260 262 261 264 268 271 275 280 283 286 289 292 290 290 289 290 291 290 289 289
Height
5737 5745 5756 5769 5777 5783 5788 5794 5799 5804 5807 5812 5818 5818 5823 5826 5831 5833 5835 5839 5843 5849 5849 5854 5859 5860 5863 5864 5867 5868 5871 5871 5871 5873 5875 5874 5874 5877 5879 5880 5881 5882 5882 5881
5726 5738 5754 5761 5771 5775 5782 5786 5793 5799 5801 5807 5812 5815 5816 5820 5825 5827 5829 5831 5836 5842 5845 5849 5852 5855 5859 5859 5862 5864 5867 5869 5868 5868 5869 5871 5872 5873 5874 5876 5875 5874 5874 5875
5724 5741 5743 5753 5762 5768 5773 5780 5786 5792 5797 5802 5806 5809 5813 5817 5819 5823 5824 5825 5827 5834 5837 5842 5845 5848 5853 5856 5856 5858 5860 5863 5865 5864 5864 5867 5868 5869 5870 5869 5868 5870 5871 5869
5714 5722 5736 5746 5755 5760 5766 5774 5781 5783 5788 5795 5798 5803 5808 5813 5816 5819 5821 5821 5821 5825 5830 5834 5839 5841 5845 5847 5849 5852 5853 5856 5858 5859 5861 5861 5863 5864 5863 5863 5863 5862 5863 5863
5705 5714 5728 5736 5750 5756 5762 5769 5776 5777 5780 5786 5790 5794 5805 5807 5813 5816 5815 5818 5819 5821 5824 5829 5831 5834 5836 5838 5840 5842 5845 5848 5850 5852 5853 5854 5856 5857 5857 5856 5856 5856 5855 5855
5694 5709 5715 5729 5737 5745 5751 5759 5767 5768 5771 5776 5784 5788 5797 5801 5808 5809 5812 5814 5816 5819 5821 5823 5826 5829 5831 5832 5834 5836 5838 5841 5842 5844 5845 5846 5848 5848 5848 5849 5848 5848 5848 5848
5678 5693 5707 5718 5726 5732 5742 5753 5757 5762 5762 5769 5777 5780 5785 5797 5802 5805 5807 5809 5811 5814 5816 5818 5822 5824 5825 5827 5828 5830 5832 5833 5834 5835 5836 5838 5838 5839 5840 5839 5839 5839 5838 5837
5669 5679 5694 5705 5717 5733 5736 5741 5746 5748 5754 5760 5765 5769 5775 5791 5794 5797 5801 5802 5805 5808 5810 5813 5815 5819 5820 5821 5822 5823 5825 5827 5827 5829 5829 5828 5828 5828 5828 5828 5828 5828 5828 5827
5664 5675 5689 5699 5709 5719 5723 5729 5741 5744 5747 5753 5756 5763 5770 5782 5786 5789 5794 5798 5799 5803 5805 5807 5809 5810 5812 5813 5814 5816 5818 5819 5820 5820 5820 5821 5819 5818 5818 5817 5816 5817 5816 5815
5657 5671 5680 5690 5697 5701 5715 5727 5728 5730 5739 5744 5746 5753 5762 5772 5780 5782 5786 5789 5791 5793 5797 5799 5801 5802 5803 5806 5807 5809 5810 5811 5811 5810 5809 5809 5808 5808 5807 5805 5804 5804 5803 5803
5649 5661 5670 5675 5679 5693 5706 5710 5717 5727 5732 5735 5741 5748 5757 5761 5771 5774 5777 5780 5782 5785 5787 5789 5791 5794 5796 5797 5799 5800 5801 5801 5801 5800 5799 5799 5799 5798 5796 5795 5794 5792 5789 5788
5642 5648 5657 5665 5679 5689 5693 5702 5709 5713 5726 5731 5737 5744 5748 5755 5758 5765 5767 5770 5772 5775 5778 5781 5783 5785 5787 5788 5789 5789 5791 5791 5791 5790 5790 5789 5787 5786 5786 5785 5783 5779 5776 5773
5631 5637 5645 5653 5664 5672 5681 5695 5703 5709 5715 5720 5728 5739 5738 5742 5746 5748 5754 5760 5764 5767 5770 5771 5773 5775 5776 5777 5778 5779 5779 5779 5779 5779 5778 5777 5776 5775 5774 5771 5770 5767 5764 5761
5619 5626 5637 5648 5668 5669 5672 5680 5687 5694 5701 5714 5720 5730 5730 5733 5734 5737 5740 5747 5752 5756 5758 5760 5762 5764 5766 5767 5767 5768 5768 5768 5767 5766 5765 5764 5763 5761 5760 5759 5756 5754 5751 5748
5613 5622 5631 5642 5650 5657 5665 5672 5677 5684 5696 5697 5719 5715 5721 5725 5724 5725 5729 5733 5737 5741 5745 5748 5751 5753 5754 5755 5757 5757 5757 5756 5756 5755 5753 5751 5749 5747 5746 5744 5742 5740 5739 5736
5605 5615 5624 5630 5638 5645 5650 5659 5666 5675 5682 5690 5697 5703 5709 5710 5711 5714 5720 5722 5725 5728 5732 5735 5738 5740 5742 5744 5744 5744 5744 5743 5742 5741 5740 5739 5737 5735 5733 5732 5731 5728 5725 5722
5603 5610 5617 5622 5627 5632 5634 5649 5660 5670 5672 5685 5685 5702 5701 5703 5702 5706 5710 5713 5714 5715 5719 5721 5725 5728 5730 5731 5732 5732 5731 5730 5729 5728 5727 5726 5724 5722 5720 5718 5716 5713 5710 5708
5595 5601 5607 5608 5612 5616 5635 5643 5654 5658 5665 5672 5681 5685 5688 5690 5694 5697 5697 5702 5705 5706 5706 5710 5713 5715 5716 5716 5716 5717 5717 5717 5716 5715 5714 5712 5710 5707 5705 5703 5700 5697 5695 5692
5582 5587 5591 5593 5607 5617 5626 5637 5642 5645 5657 5664 5671 5674 5677 5680 5682 5684 5688 5694 5695 5694 5696 5698 5699 5700 5701 5703 5703 5703 5703 5703 5702 5700 5699 5697 5696 5694 5691 5689 5686 5683 5681 5677
5572 5578 5585 5591 5598 5610 5628 5629 5634 5637 5643 5653 5657 5660 5664 5667 5667 5683 5679 5679 5684 5685 5685 5687 5689 5690 5690 5690 5690 5689 5689 5688 5687 5686 5684 5683 5682 5680 5677 5674 5672 5670 5668 5666
5563 5569 5574 5583 5592 5603 5613 5619 5622 5627 5649 5641 5646 5648 5650 5653 5663 5664 5666 5668 5672 5674 5675 5675 5675 5676 5676 5677 5677 5677 5676 5676 5675 5674 5672 5670 5667 5665 5662 5660 5658 5656 5654 5652
5558 5563 5568 5577 5586 5597 5603 5606 5617 5631 5628 5629 5634 5639 5643 5648 5650 5653 5656 5657 5658 5660 5661 5661 5662 5663 5664 5664 5664 5664 5664 5663 5662 5660 5658 5656 5654 5652 5650 5647 5645 5642 5640 5637
5550 5559 5567 5576 5584 5591 5593 5601 5607 5612 5616 5619 5624 5628 5632 5635 5637 5638 5641 5643 5644 5646 5646 5646 5648 5649 5651 5651 5650 5650 5649 5649 5648 5646 5645 5643 5642 5639 5636 5633 5631 5628 5626 5624
5543 5552 5559 5567 5577 5583 5587 5593 5596 5600 5604 5607 5611 5615 5619 5621 5623 5625 5627 5629 5630 5631 5631 5633 5634 5635 5636 5637 5637 5636 5636 5635 5635 5633 5632 5629 5628 5626 5624 5621 5619 5616 5613 5610
5538 5544 5552 5560 5566 5572 5577 5581 5584 5587 5590 5595 5599 5603 5606 5608 5610 5613 5615 5617 5618 5619 5619 5619 5620 5622 5622 5623 5622 5622 5622 5622 5621 5620 5617 5614 5613 5612 5610 5607 5605 5602 5600 5597
5526 5534 5542 5552 5558 5562 5568 5570 5573 5576 5578 5582 5585 5588 5590 5594 5597 5600 5602 5604 5605 5605 5606 5608 5608 5609 5609 5609 5609 5607 5607 5606 5606 5605 5603 5602 5600 5597 5596 5593 5590 5587 5585 5583